Follow iAlert.com on twitter @ialertcom
Search For Active Alerts in Your Area  
  Hi Guest:  [ Sign-up / Services ] [ Login ]

Current weather by "City, St" or "zip code"  
 

Advertise Here

Current Conditions: Natchitoches, Natchitoches Regional Airport, LA

Fair


97.0 F

Last Updated on Aug 16 2018, 5:55 pm CDT
Humidity: 44%
Wind Speed: N 0.0 mph
Barometer 29.99 in
Dewpoint: 71.4 F
Visibility: 10.00 mi
Precip: --
Heat Index: 106 F
Wind Chill: NA
Current conditions at:

Natchitoches, Natchitoches Regional Airport, LA (KIER)

Lat: 31.73 Lon: 93.099

Local Radar Image active severe weather and emergency alerts image image weather storm and storm spotter reports image weather observation monitoring service image
Local
Radar
Active
Alerts
Storm Reports Obs
Monitoring

iAlert Weather and Emergency Alert Notification Services:


ialert severe weather and emergency alerts by text message and email ialert daily weather forecast by email and text message service ialert real-time weather-observation monitoring and alert notification service ialert storm report monitoring alert notification

Observation History for Natchitoches, Natchitoches Regional Airport, LA


Time Wind
(mph)
Vis
(mi)
Weather Precip (in) Temperature (F) Relative
Humidity
Wind
Chill
(°F)
Heat
Index
(°F)
Pressure
Air Dwpt altimeter
(in)
sea level
(mb)
5:55 pm CDT N 0.0 10.00 Fair -- 97.0 71.4 44% NA 106 29.99 M
4:55 pm CDT N 0.0 10.00 Fair -- 96.0 72.9 47% NA 105 30.00 M
4:35 pm CDT N 0.0 10.00 Fair -- 96.0 72.5 46% NA 105 30.01 M
3:55 pm CDT SW 4.6 10.00 Overcast -- 97.0 74.1 48% NA 108 30.02 M
2:55 pm CDT N 0.0 10.00 Overcast -- 93.0 73.2 53% NA 102 30.03 M
1:55 pm CDT N 0.0 10.00 Partly Cloudy -- 92.0 72.0 51% NA 99 30.06 M
12:55 pm CDT W 4.6 10.00 Mostly Cloudy -- 92.0 74.1 56% NA 102 30.07 M
12:35 pm CDT NW 5.8 10.00 Mostly Cloudy -- 92.0 73.9 56% NA 102 30.07 M
11:55 am CDT SW 5.8 10.00 Mostly Cloudy -- 91.0 74.3 57% NA 101 30.08 M
11:35 am CDT SW 8.1 10.00 Partly Cloudy -- 91.0 73.8 58% NA 101 30.09 M
10:55 am CDT SW 5.8 10.00 Fair -- 90.0 75.7 64% NA 102 30.09 M
10:35 am CDT SW 8.1 10.00 Fair -- 88.0 75.6 67% NA 98 30.09 M
9:55 am CDT SW 5.8 10.00 Partly Cloudy -- 86.0 75.9 72% NA 96 30.09 M
8:55 am CDT W 5.8 10.00 Fair -- 83.0 77.5 83% NA 92 30.09 M
8:35 am CDT N 0.0 10.00 Fair -- 82.0 77.2 86% NA 90 30.09 M
7:55 am CDT N 0.0 10.00 Fair -- 79.0 75.7 90% NA NA 30.08 M
6:55 am CDT N 0.0 7.00 Fair -- 75.0 74.3 98% NA NA 30.06 M
5:55 am CDT N 0.0 10.00 Fair -- 75.0 74.3 98% NA NA 30.04 M
5:35 am CDT N 0.0 10.00 Fair -- 75.0 74.3 97% NA NA 30.04 M
4:55 am CDT N 0.0 10.00 Fair -- 76.0 74.7 96% NA NA 30.02 M
3:55 am CDT N 0.0 10.00 Fair -- 76.0 74.7 95% NA NA 30.01 M
2:55 am CDT S 3.5 10.00 Fair -- 77.0 74.8 92% NA NA 30.01 M
1:55 am CDT N 0.0 10.00 Fair -- 78.0 74.8 90% NA NA 30.01 M
12:55 am CDT N 0.0 10.00 Fair -- 79.0 74.7 87% NA NA 30.01 M

Regional Weather Observation


Ft. Polk - Peason Ridge, LA (KAQV)

A Few Clouds
93.0 F

Barksdale Air Force Base, LA (KBAD)

Fair
93.0 F

Shreveport, Shreveport Regional Airport, LA (KSHV)

A Few Clouds
96.0 F

Ft. Polk/Self Strip, LA (KDNK)

Light Rain
66.0 F

Minden Airport, LA (KMNE)

Partly Cloudy
97.0 F

Fort Polk, Polk AAF Ft Polk, LA (KPOE)

Fair
94.0 F

Advertise Here